Hourly Weather Roundup
Issued by NWS Central Illinois

Home | Current Version | Previous Version | Text Only | Print | Product List | Glossary On
Versions: 1 2 3 4 5 6 7 8 9 10 11 12 13 14 15 16 17 18 19 20 21 22 23 24 25 26 27 28 29 30 31 32 33 34 35 36 37 38 39 40 41 42 43 44 45 46 47 48 49 50
000
NZUS43 KILX 210110
HWRILX

Area Weather Roundup
National Weather Service Lincoln IL
700 PM CST MON NOV 20 2017

NOTE:  "FAIR" indicates few or no clouds below 12,000 feet, with
       no sigificant weather and/or obstructions to visibility.


CITY           SKY/WX    TMP DP  RH WIND       PRES   REMARKS
Bloomington    CLEAR     43  31  62 S23       29.80F WCI  34
Champaign      CLEAR     43  31  62 S21       29.86F WCI  34
Danville       CLEAR     43  30  61 S20G26    29.86F WCI  34
Decatur        CLEAR     44  30  57 S17       29.85F
Effingham      CLEAR     45  29  54 SE8G16    29.95F
Flora          CLEAR     44  30  59 S12       29.97F
Galesburg      CLOUDY    50  33  53 S14       29.75F
Jacksonville   CLEAR     48  29  48 S12       29.82R
Lacon          CLOUDY    48  32  52 SW10G20   29.76R
Lawrenceville  CLEAR     41  29  62 MISG      29.99F
Litchfield     CLEAR     43  32  65 S20G26    29.86F WCI  34
$$


CITY           SKY/WX    TMP DP  RH WIND       PRES   REMARKS
Lincoln        CLEAR     45  34  65 S17G25    29.82S
Macomb         CLOUDY    50  32  49 S13       29.78S
Mattoon        CLEAR     44  29  55 S15       29.90F
Mt Carmel AP   CLEAR     42  27  55 S9        29.99F
Olney-Noble AP CLEAR     43  24  46 S12       29.98F
Paris AP       CLEAR     42  31  66 S17       29.93F WCI  33
Peoria         CLEAR     47  33  58 S17G28    29.79R
Pontiac        CLEAR     45  33  64 S22G32    29.79F
Rantoul        CLEAR     42  34  73 S14       29.86F WCI  35
Robinson       CLEAR     41  28  60 S9        29.98F
Springfield    CLEAR     48  32  53 S21G33    29.83S
Taylorville    CLEAR     44  31  60 S23G30    29.85S
$$

...REGIONAL REPORTS...


CITY           SKY/WX    TMP DP  RH WIND       PRES   REMARKS
Chicago O`Hare MOCLDY    48  32  53 S20G32    29.73S
Kankakee       CLEAR     43  32  65 S15G21    29.82F
Moline         CLOUDY    52  32  46 S13G22    29.70S
Mount Sterling CLOUDY    50  28  42 S10       29.78S
Mount Vernon   CLEAR     45  28  51 S10       29.98F
Pittsfield     CLEAR     52  29  41 S12       29.81S
Quincy         CLOUDY    51  30  44 S14       29.78S
Rockford       CLOUDY    45  33  63 S13       29.72S
$$


CITY           SKY/WX    TMP DP  RH WIND       PRES   REMARKS
Burlington     CLOUDY    49  33  54 S8        29.73S
Cedar Rapids   CLOUDY    50  31  48 SW12      29.65R
Des Moines     CLOUDY    54  29  38 SW13      29.65R
Kirksville     MOCLDY    54  30  40 SW16G24   29.75S
Ottumwa        CLOUDY    53  29  39 S13       29.68S
St Louis       CLEAR     51  28  41 S16G23    29.86F
$$


CITY           SKY/WX    TMP DP  RH WIND       PRES   REMARKS
Terre Haute    CLEAR     44  26  49 S14       29.96F
Evansville     CLEAR     45  24  43 S9        30.04F
Indianapolis   PTCLDY    42  24  49 S13       29.97F
Lafayette      CLEAR     42  29  59 S10G18    29.89F
Madison        CLOUDY    50  32  50 S15G28    29.60S
Milwaukee      CLOUDY    50  33  52 SW20G32   29.65S
$$






USA.gov is the U.S. government's official web portal to all federal, state and local government web resources and services.